Regional Weather Roundup
Issued by NWS

Home | Current Version | Previous Version | Graphics & Text | Print | Product List | Glossary Off
Versions: 1 2 3 4 5 6 7 8 9 10 11 12 13 14 15 16 17 18 19 20 21 22 23 24 25 26 27 28 29 30 31 32 33 34 35 36 37 38 39 40 41 42 43 44 45 46 47 48 49 50

000
ASUS43 KMKX 181000
RWRWI

WISCONSIN REGIONAL WEATHER ROUNDUP
NATIONAL WEATHER SERVICE MILWAUKEE/SULLIVAN WI
500 AM CDT SAT APR 18 2015

NOTE: "FAIR" INDICATES FEW OR NO CLOUDS BELOW 12,000 FEET WITH NO
SIGNIFICANT WEATHER AND/OR OBSTRUCTIONS TO VISIBILITY.

WIZ001-002-006>008-014>016-023>028-181100-
NORTHWEST WISCONSIN

CITY           SKY/WX    TMP DP  RH WIND       PRES   REMARKS
SUPERIOR ARPT  CLEAR     41  33  72 E14G20    30.19S
ASHLAND        CLEAR     36  32  85 NE7       30.21R WCI  30
HAYWARD        CLEAR     44  31  60 NE8       30.15R
SIREN          CLEAR     49  28  44 E7        30.12R
CUMBERLAND     CLEAR     48  28  46 E14       30.10R
RICE LAKE      CLEAR     45  30  56 N7        30.12R
CHETEK         CLEAR     51  31  45 NE7       30.10S
LADYSMITH      CLEAR     49  31  50 NE10      30.11S
EAU CLAIRE     NOT AVBL
MENOMONIE      CLEAR     50  30  46 N3        30.08R
NEW RICHMOND   CLEAR     46  31  55 NE5       30.09R
OSCEOLA        CLEAR     51  30  43 NE9       30.11R
$$

WIZ003>005-009-010-017-018-181100-
NORTH CENTRAL WISCONSIN

CITY           SKY/WX    TMP DP  RH WIND       PRES   REMARKS
MANITOWISH WTR CLEAR     40  32  72 NE5       30.15R
ARBOR VITAE    CLEAR     44  33  65 NE5       30.14R HAZE
WOODRUFF       CLEAR     44  33  65 NE5       30.14R HAZE
RHINELANDER    CLEAR     44  31  60 NE9G18    30.13R
EAGLE RIVER    CLEAR     40  30  67 NE10      30.13R WCI  34
LAND O LAKES   CLEAR     40  32  71 NE8       30.16R WCI  35
PHILLIPS       CLEAR     44  32  61 NE8       30.12R
TOMAHAWK       CLEAR     46  31  56 CALM      30.13R
MEDFORD        CLEAR     46  30  54 NE12      30.09R
MERRILL        CLEAR     47  30  51 NE7       30.10R
$$

WIZ029-030-035-036-043>047-181100-
CENTRAL WISCONSIN

CITY           SKY/WX    TMP DP  RH WIND       PRES   REMARKS
WAUSAU         FAIR      49  29  46 N3        30.09R
MOSINEE        CLEAR     50  30  46 NE9       30.09R
MARSHFIELD     CLEAR     51  30  44 NE15      30.07R
STEVENS POINT  CLEAR     43  32  64 NE8       30.08R
WAUPACA        CLEAR     52  35  51 N9        30.06R
WAUTOMA        NOT AVBL
WISC RAPIDS    CLEAR     52  30  43 NE9       30.08R
CAMP DOUGLAS   NOT AVBL
$$

WIZ011>013-019>022-031-037>040-048>050-181100-
NORTHEAST WISCONSIN

CITY           SKY/WX    TMP DP  RH WIND       PRES   REMARKS
ANTIGO         CLEAR     46  31  57 NE9       30.10R
SHAWANO        CLEAR     52  35  52 NE12      30.09R
OCONTO         CLEAR     46  35  65 N7        30.09R
STURGEON BAY   CLEAR     45  34  65 N18       30.11R
GREEN BAY      CLEAR     49  38  65 NE14      30.09R
MANITOWOC      NOT AVBL
APPLETON       CLEAR     52  37  58 N20       30.06R
CLINTONVILLE   CLEAR     50  32  50 NE10G16   30.07R
OSHKOSH        CLEAR     45  40  82 NW5       30.06R
$$

WIZ032>034-041-042-053>061-181100-
SOUTHWEST WISCONSIN

CITY           SKY/WX    TMP DP  RH WIND       PRES   REMARKS
LA CROSSE      PTCLDY    51  45  79 CALM      30.04S
SPARTA         CLEAR     36  36  98 CALM      30.06S
VIROQUA        PTCLDY    55  36  48 NE6       30.05S
BOSCOBEL       CLEAR     44  41  89 CALM      30.04S
PRAIRIE DU CHI CLEAR     49  43  80 CALM      30.03S
PLATTEVILLE    PTCLDY    55  44  66 NE6       30.03S
$$

WIZ056-057-062-063-064-067-068-181100-
SOUTH CENTRAL WISCONSIN

CITY           SKY/WX    TMP DP  RH WIND       PRES   REMARKS
REEDSBURG      CLEAR     46  44  93 CALM      30.04S
BARABOO/DELLS  CLEAR     47  40  77 CALM      30.04F
LONE ROCK      NOT AVBL
MINERAL POINT  CLEAR     61  37  41 NE6       30.04S
MADISON        CLEAR     48  45  89 CALM      30.03S
MIDDLETON      CLEAR     49  43  80 CALM      30.05R
WATERTOWN      CLEAR     45  45  98 CALM      30.03S
MONROE         CLEAR     59  45  58 N8        30.02F
JANESVILLE     PTCLDY    48  45  87 CALM      30.02S
$$

WIZ051-052-058>065-066-070>072-181100-
SOUTHEAST WISCONSIN

CITY           SKY/WX    TMP DP  RH WIND       PRES   REMARKS
MILWAUKEE      PTCLDY    54  43  66 NW7       30.03R
WAUKESHA       CLEAR     50  43  76 W3        30.04S
MILWAUKEE/TIMM CLEAR     50  41  71 CALM      30.03S
RACINE         PTCLDY    55  44  66 NW8       30.03R
BURLINGTON     PTCLDY    44  43  96 CALM      30.02S
KENOSHA        PTCLDY    55  46  71 NW5       30.02R HAZE
FOND DU LAC    CLEAR     44  40  85 SW3       30.05R
SHEBOYGAN      CLEAR     48  40  73 NW5       30.04R
WEST BEND      CLEAR     45  39  81 CALM      30.04R
JUNEAU         CLEAR     50  42  75 CALM      30.05R
$$

LSZ147-162-181100-
LAKE SUPERIOR

STATION/POSITION TIME  TEMP    WIND        PRES    WAVE
                       AIR SEA DIR/SP/G            HT/PER
                 (UTC) (F)     (DEG/KT/KT) (MB)    (FT/S)
DEVILS ISLAND    0900   40      40/ 15/ 16 1023.3R
PORT WING        0900   44      60/ 15/ 20 1022.0
SAXON HARBOR     0940   40        CALM     1022.4R
$$

LMZ867-665-643>646-181100-
LAKE MICHIGAN

STATION/POSITION TIME  TEMP    WIND        PRES    WAVE
                       AIR SEA DIR/SP/G            HT/PER
                 (UTC) (F)     (DEG/KT/KT) (MB)    (FT/S)
CHAMBERS ISLAND  0900   41     350/ 15/ 16 1018.6R
NORTHPORT PIER   0900   42     340/ 17/ 21 1018.6R
SISTER BAY       0817   48      10/ 19/ 25   N/A
KEWAUNEE LAKESHO 0900   51     350/  9/ 13 1016.6R
SHEBOYGAN LAKESH 0900   59     310/  6/  7 1017.0R
PORT WASHINGTON  0900   59     300/  7/ 10 1016.9
MILWAUKEE LAKESH 0900   58     320/  7/  9   N/A
KENOSHA   LAKESH 0900   59     300/  7/ 12 1016.3R
$$

TC  - TEMPERATURE IN CELSIUS
VSB - VISIBILITY IN STATUTE MILES
WCI - WIND CHILL INDEX
HX  - HEAT INDEX




USA.gov is the U.S. government's official web portal to all federal, state and local government web resources and services.